Location: Monrovia
(34.7865°N, 86.7139°W)
Time: 22:03:55
(UTC+00:00)

ERS-2 - Pass Details

Date: 14 July 2020
Orbit: 493 x 498 km, 98.5° (Epoch: 08 August)

Event Time Altitude Azimuth Distance (km) Brightness Sun altitude
Exits shadow 08:44:49 - 140° (SE) 2,405 5.5 -20.4°
Reaches altitude 10° 08:46:41 10° 130° (SE) 1,688 4.8 -20.1°
Maximum altitude 08:49:46 27° 71° (ENE) 986 4.2 -19.7°
Drops below altitude 10° 08:52:52 10° 13° (NNE) 1,696 5.7 -19.3°
Sets 08:55:09 0° 1° (N) 2,582 6.5 -18.9°
